Preview of NWS' New Version of Forecast
This preview is not operational and should not be used for support decisions.

Regional Weather Roundup (RWR)

Issued by National Weather Service (NWS)

                            
000
ASUS43 KDMX 260206
RWRIA 

WEATHER ROUNDUP FOR IOWA
NATIONAL WEATHER SERVICE DES MOINES IA
900 PM CDT TUE JUN 25 2019

NOTE: "FAIR" INDICATES FEW OR NO CLOUDS BELOW 12,000 FEET WITH NO
SIGNIFICANT WEATHER AND/OR OBSTRUCTIONS TO VISIBILITY.

* - THESE STATIONS ARE NOT NWS STATIONS...THUS NOT UNDER NWS
QUALITY CONTROL.  THEY ALSO DO NOT REPORT WEATHER SUCH 
AS PRECIPITATION OR FOG.  

IAZ001>003-012>014-020>022-031>034-043>046-260300-
   NORTHWEST IOWA
  
CITY           SKY/WX    TMP DP  RH WIND       PRES   REMARKS
CARROLL *      CLEAR     73  64  73 CALM      29.90S                  
CHEROKEE *     CLEAR     74  57  55 CALM      29.90S                  
DENISON *      CLEAR     72  66  83 CALM      29.92S                  
LE MARS *      CLEAR     75  59  57 CALM      29.89F                  
SHELDON *      CLEAR     72  59  64 NW5       29.90R                  
SIOUX CITY     CLEAR     77  56  48 CALM      29.90S                  
SPENCER        CLEAR     74  56  53 NW5       29.90S                  
STORM LAKE *   CLEAR     73  54  49 NW5       29.88S                  
$$
 
IAZ055>058-069>071-079>083-090>094-260300-
   SOUTHWEST IOWA
  
CITY           SKY/WX    TMP DP  RH WIND       PRES   REMARKS
ATLANTIC *     MOCLDY    72  72 100 CALM      29.89F                  
AUDUBON *      MOCLDY    72  66  83 CALM      29.92F                  
CLARINDA *     CLEAR     72  66  83 CALM      29.92S                  
COUNCIL BLFS * CLOUDY    75  64  69 SE5       29.89R                  
CRESTON *      CLOUDY    68  64  88 E12       29.93R                  
HARLAN  *      MOCLDY    73  70  88 CALM      29.90S                  
LAMONI         CLEAR     64  62  93 NE5       29.92F                  
RED OAK *      MOCLDY    72  63  73 CALM      29.92R                  
SHENANDOAH *   MOCLDY    73  64  73 E5        29.88F                  
$$
 
IAZ047>049-059>061-072>074-084-260300-
   CENTRAL IOWA
  
CITY           SKY/WX    TMP DP  RH WIND       PRES   REMARKS
AMES           CLEAR     72  64  76 CALM      29.91R                  
ANKENY *       MOCLDY    75  63  64 SW5       29.92S                  
BOONE *        CLEAR     77  61  57 CALM      29.91R                  
CHARITON *     PTCLDY    66  66 100 SE6       29.92F                  
DES MOINES     MOCLDY    73  62  68 S3        29.90S                  
GRINNELL*      CLEAR     74  63  67 S7        29.93R                  
KNOXVILLE *    PTCLDY    66  63  88 S5        29.93R                  
MARSHALLTOWN   CLEAR     74  61  63 W6        29.90R                  
NEWTON *       PTCLDY    73  66  78 S8        29.93R                  
PELLA *          N/A     68  61  78 SW6       29.94R                  
$$
 
IAZ004>006-015-016-023>025-035-036-260300-
   NORTH CENTRAL IOWA
  
CITY           SKY/WX    TMP DP  RH WIND       PRES   REMARKS
ALGONA *       CLEAR     72  57  60 W6        29.90R                  
CLARION *      CLEAR     73  59  60 W5        29.91R                  
ESTHERVILLE    CLEAR     71  55  56 W6        29.90R                  
FORT DODGE *   CLEAR     72  58  61 SW5       29.91R                  
MASON CITY     CLEAR     73  54  51 W5        29.91R                  
FOREST CITY *  FAIR      73  50  43 CALM      29.90R                  
IOWA FALLS *   FAIR      74  60  60 SW6       29.93R                  
$$

IAZ007>011-017>019-026>030-037>042-050>054-066-260300-
   NORTHEAST IOWA
  
CITY           SKY/WX    TMP DP  RH WIND       PRES   REMARKS
CEDAR RAPIDS   FAIR      75  64  68 SW9       29.91R                  
CHARLES CITY * FAIR      73  55  53 W6        29.90R                  
CLINTON *      FAIR      75  62  64 SW7       29.90R                  
DECORAH *      FAIR      73  54  49 VRB3      29.87R                  
DUBUQUE        FAIR      71  62  73 SW5       29.89R                  
MONTICELLO *   FAIR      73  64  73 SW5       29.89R                  
OELWEIN *      FAIR      72  61  68 W8        29.90R                  
WATERLOO       FAIR      76  59  55 W6        29.89R                  
$$
 
IAZ064-065-067-068-078-260300-
   EAST CENTRAL IOWA
  
CITY           SKY/WX    TMP DP  RH WIND       PRES   REMARKS
DAVENPORT      FAIR      78  61  55 W8        29.91S HX  80           
IOWA CITY      FAIR      71  61  70 SW6       29.92R                  
MT. PLEASANT * LGT RAIN  68  64  88 S16       29.97R                  
MUSCATINE *    FAIR      75  64  69 SW8       29.92R                  
QUAD CITIES    FAIR      77  64  64 SW6       29.90R                  
$$
 
IAZ062-063-075>077-085>089-095>099-260300-
   SOUTHEAST IOWA
  
CITY           SKY/WX    TMP DP  RH WIND       PRES   REMARKS
BURLINGTON     LGT RAIN  68  62  81 SW15G25   29.99R                  
FAIRFIELD *    CLOUDY    68  61  77 S9G15     29.94F                  
FORT MADISON * LGT RAIN  66  64  94 NW10      29.99R                  
KEOKUK *       CLOUDY    64  63  94 CALM      30.02R                  
OSKALOOSA *    FAIR      67  60  78 CALM      29.93S                  
CENTERVILLE *  FAIR      64  64 100 S10       29.95S                  
OTTUMWA        PTCLDY    67  62  84 CALM      29.92S                  
WASHINGTON *   PTCLDY    72  70  94 SW15G29   29.93R                  
$$

ABBREVIATIONS USED IN REMARKS
   TC - TEMPERATURES IN CELSIUS
  WCI - WIND CHILL INDEX
   HX - HEAT INDEX
  VSB - VISIBILITY  
$$